Regional Weather Roundup
Issued by NWS Kansas City/Pleasant Hill, MO

Home | Current Version | Previous Version | Graphics & Text | Print | Product List | Glossary Off
Versions: 1 2 3 4 5 6 7 8 9 10 11 12 13 14 15 16 17 18 19 20 21 22 23 24 25 26 27

000
ASUS43 KEAX 280110
RWREAX

WEATHER ROUNDUP FOR EASTERN KANSAS AND NORTHWEST MISSOURI
NATIONAL WEATHER SERVICE KANSAS CITY/PLEASANT HILL MO
800 PM CDT TUE SEP 27 2016

KSZ040-057-103>105-MOZ028-029-037-043-280200-
...KANSAS CITY METROPOLITAN AREA...

CITY           SKY/WX    TMP DP  RH WIND       PRES   REMARKS
K.C. INTL      CLEAR     69  55  60 SW3       29.87S
K.C. DOWNTOWN  CLEAR     72  55  55 SW3       29.86S
LEES SUMMIT    CLEAR     71  55  56 SW3       29.88S
OLATHE - IXD   CLEAR     68  56  65 S3        29.89S
OLATHE - OJC   CLEAR     68  56  65 CALM      29.88F
LAWRENCE       CLEAR     62  59  90 CALM      29.88R

$$

MOZ001>008-011>017-020>025-030>033-038>040-044>046-053-054-280200-
...NORTHERN AND CENTRAL MISSOURI...

CITY           SKY/WX    TMP DP  RH WIND       PRES   REMARKS
ST. JOSEPH     CLEAR     62  57  83 CALM      29.87R
MOSBY          CLEAR     63  55  77 CALM      29.87S
WHITEMAN AFB   CLEAR     69  56  62 SW7       29.86F
CLINTON        CLEAR     68  57  68 CALM      29.88F
SEDALIA        CLEAR     71  53  52 W6        29.88S
WARSAW         NOT AVBL
CHILLICOTHE      N/A     63  55  75 CALM      29.87R
KIRKSVILLE     CLEAR     58  48  69 SW5       29.84F

$$

MOZ041-047>049-056>058-063>065-088>090-097-280200-
...EASTERN AND SOUTHERN MISSOURI...

CITY           SKY/WX    TMP DP  RH WIND       PRES   REMARKS
ST. LOUIS INTL CLEAR     72  49  44 SW7       29.84F
SPIRIT OF STL  CLEAR     64  54  69 W5        29.83F
COLUMBIA       CLEAR     66  55  67 SW7       29.86S
JEFFERSON CITY CLEAR     72  53  51 SW6       29.85S
ROLLA          CLEAR     62  52  69 SW8       29.88F
OSAGE BEACH    CLEAR     68  54  60 SW8       29.89F
SPRINGFIELD    CLEAR     66  50  56 SW5       29.94R
BRANSON        CLEAR     66  48  52 SW5       29.97F
JOPLIN         CLEAR     65  52  62 S9        29.94S
WEST PLAINS    CLEAR     65  51  60 SW6       29.96S

$$

IAZ060-094-KSZ022-034>040-054-083-096-NEZ052-066-093-280200-
...KANSAS...SOUTHEAST NEBRASKA AND IOWA...

CITY           SKY/WX    TMP DP  RH WIND       PRES   REMARKS
TOPEKA         CLEAR     66  58  75 CALM      29.87F
MANHATTAN      CLEAR     66  57  72 CALM      29.89R
EMPORIA        CLEAR     67  57  70 SW7       29.91R
CHANUTE        CLEAR     66  56  70 SW7       29.91S
WICHITA        CLEAR     69  59  70 S6        29.92F
OMAHA          CLEAR     66  56  70 CALM      29.85S
LINCOLN        CLEAR     70  50  49 CALM      29.87S
FALLS CITY     CLEAR     68  52  56 CALM      29.86S HAZE
LAMONI         CLEAR     64  47  53 W7        29.84F
DES MOINES     PTCLDY    65  46  50 W5        29.81S

$$





USA.gov is the U.S. government's official web portal to all federal, state and local government web resources and services.